TimeAKST,TemperatureF,Dew PointF,Humidity,Sea Level PressureIn,VisibilityMPH,Wind Direction,Wind SpeedMPH,Gust SpeedMPH,PrecipitationIn,Events,Conditions,WindDirDegrees,DateUTC
12:53 AM,24.1,19.9,84,29.75,3.0,Calm,Calm,-,0.00,Snow,Light Snow,0,2014-02-20 09:53:00
1:14 AM,24.8,21.2,86,29.75,3.0,Calm,Calm,-,0.00,Snow,Light Snow,0,2014-02-20 10:14:00
1:53 AM,24.1,19.9,84,29.77,5.0,Calm,Calm,-,0.00,Snow,Light Snow,0,2014-02-20 10:53:00
3:28 AM,23.0,17.6,80,29.80,5.0,Calm,Calm,-,0.00,Snow,Light Snow,0,2014-02-20 12:28:00
3:53 AM,21.9,17.1,82,29.81,3.0,Calm,Calm,-,0.00,Snow,Light Snow,0,2014-02-20 12:53:00
4:53 AM,21.0,16.0,81,29.83,5.0,Calm,Calm,-,0.00,Snow,Light Snow,0,2014-02-20 13:53:00
5:53 AM,21.9,16.0,78,29.85,10.0,Calm,Calm,-,0.00,Snow,Light Snow,0,2014-02-20 14:53:00
6:53 AM,19.0,16.0,88,29.87,10.0,Calm,Calm,-,0.00,Snow,Light Snow,0,2014-02-20 15:53:00
7:53 AM,21.0,17.1,85,29.90,5.0,Calm,Calm,-,0.00,Snow,Light Snow,0,2014-02-20 16:53:00
8:53 AM,21.9,17.1,82,29.92,5.0,North,3.5,-,0.00,Snow,Light Snow,350,2014-02-20 17:53:00
9:53 AM,19.9,16.0,85,29.94,5.0,North,4.6,-,0.00,Snow,Light Snow,350,2014-02-20 18:53:00
10:24 AM,19.4,15.8,86,29.94,7.0,Calm,Calm,-,0.00,Snow,Light Snow,0,2014-02-20 19:24:00
10:53 AM,21.0,16.0,81,29.96,6.0,North,3.5,-,0.00,Snow,Light Snow,350,2014-02-20 19:53:00
11:53 AM,21.0,16.0,81,29.99,4.0,NE,4.6,-,0.00,Snow,Light Snow,40,2014-02-20 20:53:00
12:53 PM,21.9,17.1,82,30.01,10.0,North,3.5,-,0.00,,Overcast,350,2014-02-20 21:53:00
1:03 PM,21.2,15.8,80,30.00,10.0,North,4.6,-,N/A,,Overcast,350,2014-02-20 22:03:00
1:53 PM,23.0,17.1,78,30.02,10.0,Calm,Calm,-,N/A,,Overcast,0,2014-02-20 22:53:00
2:53 PM,23.0,17.1,78,30.04,10.0,NNW,3.5,-,N/A,,Overcast,330,2014-02-20 23:53:00
3:53 PM,23.0,17.1,78,30.04,10.0,Variable,4.6,-,0.00,,Overcast,0,2014-02-21 00:53:00
4:53 PM,21.9,16.0,78,30.05,10.0,North,3.5,-,N/A,,Scattered Clouds,360,2014-02-21 01:53:00
5:01 PM,21.2,15.8,80,30.04,10.0,NNE,3.5,-,N/A,,Scattered Clouds,20,2014-02-21 02:01:00
5:53 PM,19.0,15.1,85,30.06,10.0,Calm,Calm,-,N/A,,Scattered Clouds,0,2014-02-21 02:53:00
6:53 PM,10.9,7.0,84,30.07,10.0,East,3.5,-,N/A,,Scattered Clouds,80,2014-02-21 03:53:00
7:53 PM,15.1,10.9,84,30.08,10.0,NE,3.5,-,N/A,,Clear,50,2014-02-21 04:53:00
8:53 PM,5.0,3.9,95,30.09,10.0,ENE,3.5,-,N/A,,Partly Cloudy,60,2014-02-21 05:53:00
9:53 PM,9.0,5.0,84,30.11,10.0,Calm,Calm,-,N/A,,Scattered Clouds,0,2014-02-21 06:53:00
10:38 PM,8.6,3.2,79,30.11,10.0,North,3.5,-,N/A,,Scattered Clouds,10,2014-02-21 07:38:00
10:53 PM,6.1,1.9,83,30.12,10.0,Calm,Calm,-,N/A,,Scattered Clouds,0,2014-02-21 07:53:00
11:53 PM,1.9,-2.9,80,30.13,10.0,Calm,Calm,-,N/A,,Partly Cloudy,0,2014-02-21 08:53:00